Location: Newark
(27.9675°N, 86.8869°E)
Time: 22:49:26
(UTC+00:00)

SR - Pass Details

Date: 30 October 2019
Orbit: 574 x 882 km, 66.7° (Epoch: 14 November)

Event Time Altitude Azimuth Distance (km) Brightness Sun altitude
Rises 00:43:32 0° 314° (NW) 3,477 ? 3.8°
Reaches altitude 10° 00:46:54 10° 295° (WNW) 2,520 ? 4.5°
Maximum altitude 00:50:33 17° 256° (WSW) 2,026 ? 5.2°
Drops below altitude 10° 00:54:06 10° 217° (SW) 2,440 ? 6.0°
Sets 00:57:19 0° 198° (SSW) 3,319 ? 6.7°
